Location: Dattensoll
(49.9928°N, 9.8954°E)
Time: 21:25:36
(UTC+00:00)

NOSS 2-1 (D) - Pass Details

Date: 19 May 2025
Orbit: 378 x 1697 km, 63.3° (Epoch: 15 June)

Event Time Altitude Azimuth Distance (km) Brightness Sun altitude
Exits shadow 22:36:15 71° 250° (WSW) 435 2.7 -19.4°
Maximum altitude 22:36:31 82° 314° (NW) 415 2.7 -19.5°
Drops below altitude 10° 22:39:30 10° 41° (NE) 1,408 5.9 -19.5°
Sets 22:41:27 0° 43° (NE) 2,259 7.0 -19.6°
